Theta_e
325 326 329 333 334 338 340 342 343 344 345 345 346 346 347 346 346 346 347 347 348 348 348 349 349 349 349 349 349 349 349 349 348 349 348 348 348 348 348 348 349 348 349 349 349 349 348 349 349 349 348 348 347 346 346 346 346 346 346 347 347 347 347 348 348 349 350 350 351 351 352 352 353 352 352 353 354 355 355 355 356 353 352 353 355
323 325 328 332 333 336 338 340 341 342 343 343 344 344 344 345 345 345 345 346 347 347 347 348 348 348 348 349 349 349 349 349 349 349 349 348 348 348 347 347 348 349 349 350 349 348 348 348 349 349 349 350 350 347 346 346 347 346 346 346 347 347 347 347 347 347 349 349 349 350 349 349 351 352 352 353 354 354 355 355 355 354 353 352 352
324 324 327 330 332 333 335 337 338 339 340 341 341 342 342 342 342 342 343 344 345 346 346 347 348 348 349 347 348 348 348 348 348 348 348 348 348 347 347 347 347 348 348 349 349 349 349 349 348 348 349 349 349 349 350 349 348 347 346 346 346 347 347 347 346 347 348 348 349 349 348 348 351 353 353 354 354 354 355 355 354 353 353 354 354
322 323 326 331 331 332 334 335 336 337 338 338 338 339 339 339 339 340 341 341 342 343 345 346 346 346 347 347 347 347 347 347 348 348 347 347 347 346 346 347 347 348 347 348 349 349 349 349 349 349 348 348 348 349 349 349 349 348 347 347 347 347 347 347 347 346 346 348 349 348 344 341 342 351 354 354 354 354 354 354 353 353 354 355 355
321 322 326 330 331 330 331 333 334 335 336 336 336 336 336 336 337 338 339 339 340 341 342 342 343 345 345 345 345 345 345 345 347 346 346 346 346 345 345 346 347 347 348 348 347 348 348 349 348 349 348 348 348 348 348 348 348 349 348 347 347 347 347 347 346 347 347 348 348 347 342 338 342 344 353 350 352 354 354 354 354 353 354 354 355
320 322 325 328 329 330 330 331 332 333 333 334 334 333 334 334 335 335 336 337 337 338 339 340 340 340 341 342 342 341 341 342 342 342 342 343 343 343 343 344 345 347 347 348 346 347 347 348 348 348 348 347 347 347 347 347 348 348 348 348 348 347 347 347 346 347 348 347 345 347 346 344 344 346 350 350 352 354 354 354 354 354 354 354 355
320 322 325 328 328 328 329 330 331 331 332 333 332 331 332 332 333 333 334 334 334 335 335 336 337 336 337 338 338 338 337 337 337 338 338 339 339 339 339 340 341 342 345 347 347 346 347 347 347 347 346 345 346 346 346 347 347 348 348 348 348 348 348 347 348 347 346 345 344 343 340 340 342 346 349 348 351 352 352 354 354 354 354 354 354
319 321 323 325 326 326 327 328 330 330 330 330 330 330 330 330 330 331 332 332 331 331 332 332 333 333 333 334 334 334 334 334 333 333 334 335 335 335 335 336 337 340 342 345 345 346 346 345 346 346 346 343 343 344 345 346 346 346 346 347 347 347 347 347 348 347 344 345 345 344 342 342 341 342 345 347 349 352 352 352 353 354 353 353 352
316 318 321 324 324 324 326 327 328 328 329 329 328 328 328 328 328 329 329 329 328 329 329 329 330 330 330 331 331 331 330 330 330 329 330 331 332 332 332 333 333 336 339 340 340 341 342 342 343 343 343 341 341 342 343 343 344 345 345 346 346 346 346 345 347 345 344 343 342 343 343 342 343 342 343 343 346 350 352 352 352 352 353 352 351
314 317 321 323 324 323 324 326 327 327 327 326 326 326 326 326 326 326 326 326 326 326 327 327 327 328 328 328 328 328 327 327 326 326 327 329 330 330 330 330 331 332 334 335 336 336 338 338 338 338 339 338 339 338 340 341 342 344 343 343 343 343 343 342 340 342 343 342 343 343 345 347 344 344 345 346 344 345 349 350 349 346 349 349 348
313 316 319 320 321 322 324 324 325 325 325 325 325 325 325 325 324 325 325 325 325 324 324 324 325 325 325 325 325 325 324 324 323 323 324 326 326 327 327 327 327 329 330 331 332 332 333 334 335 335 336 334 334 335 335 337 338 339 339 340 339 339 338 336 335 340 343 342 342 342 343 345 345 345 349 347 346 346 349 349 347 347 349 350 351
311 315 317 317 318 319 321 323 324 324 324 324 324 324 324 323 322 322 323 323 323 322 322 322 322 322 322 322 322 322 321 321 321 321 321 323 324 324 324 324 324 325 326 327 327 329 329 330 331 331 330 329 329 330 331 332 333 335 336 336 336 336 335 333 334 337 341 342 342 343 342 341 341 342 348 347 347 347 348 348 349 350 350 351 351
309 311 315 316 317 316 318 320 321 322 323 323 322 322 322 321 321 320 321 321 321 321 320 320 320 320 320 320 320 321 321 320 320 320 321 321 322 323 323 323 322 323 324 324 324 325 327 328 328 328 327 326 326 327 326 327 327 329 331 333 333 333 332 330 334 336 340 342 342 342 342 342 343 345 347 346 347 348 348 348 347 348 349 350 351
306 308 311 313 312 312 315 317 318 319 320 320 320 319 320 320 320 319 319 319 319 318 318 318 318 318 318 318 319 319 319 318 318 318 319 319 320 321 321 321 321 322 322 322 322 322 324 324 324 324 324 323 323 323 323 323 323 324 326 327 328 329 328 327 329 333 337 340 342 343 343 343 341 345 345 345 346 347 348 347 348 348 349 350 351
306 307 308 309 310 310 310 313 314 316 316 317 317 317 318 318 317 317 317 317 317 317 317 316 316 316 316 316 316 316 317 317 316 315 316 316 317 318 319 319 319 319 320 319 319 319 320 321 321 321 321 321 321 320 319 319 319 321 321 322 323 323 323 319 322 328 332 337 340 342 342 342 343 348 345 346 346 347 347 347 348 348 349 349 350
306 306 306 306 307 308 309 309 311 312 313 314 314 315 315 315 315 315 315 314 315 315 314 314 313 313 313 313 313 313 314 314 314 313 313 313 314 316 316 317 317 317 317 317 318 318 318 319 318 318 318 318 319 318 318 317 318 319 318 318 319 319 319 319 316 321 326 331 336 341 341 341 343 345 345 345 345 346 347 347 348 349 349 350 349
305 305 305 306 307 306 306 307 307 308 309 310 311 311 312 313 313 313 312 312 311 312 312 311 311 310 310 309 309 309 310 310 311 311 310 310 312 312 314 314 314 315 316 315 316 315 316 316 316 316 316 317 317 317 316 316 317 318 317 318 317 317 317 318 315 317 322 328 333 335 339 341 342 346 344 345 346 346 346 347 347 348 348 349 349
305 304 304 305 305 305 305 305 307 307 307 306 307 308 309 310 310 310 309 309 309 309 308 308 308 307 307 306 306 306 306 307 308 309 308 307 308 309 311 313 313 313 313 313 313 314 314 314 314 314 315 315 315 315 315 315 316 316 316 317 316 316 316 315 317 320 325 330 333 337 337 338 341 344 344 345 346 346 345 346 347 347 348 348 348
304 302 303 303 303 304 304 306 306 306 308 307 305 305 306 307 308 307 307 307 306 306 306 305 305 305 304 303 304 304 304 304 305 305 306 305 305 304 307 310 310 310 311 312 311 312 312 312 313 313 313 313 313 313 314 314 314 313 314 314 313 314 315 315 323 328 331 331 332 332 334 338 342 342 343 344 345 346 346 345 345 346 347 348 347
303 303 303 304 304 303 304 304 305 305 306 306 305 303 302 304 304 305 305 305 304 305 304 304 303 302 302 303 304 306 307 304 304 304 304 304 302 302 305 308 308 309 309 310 310 310 311 311 311 312 311 311 311 311 311 311 311 311 311 311 311 311 314 318 320 320 321 323 328 330 333 336 339 340 341 343 343 344 344 344 344 345 345 347 346
303 302 303 303 304 304 303 304 304 304 305 305 305 304 303 303 303 302 301 302 302 302 303 303 306 305 305 306 304 304 304 303 303 303 306 303 302 301 303 305 306 307 307 308 308 309 309 310 310 310 310 310 308 309 310 309 309 310 309 309 310 311 313 314 315 314 314 316 321 326 332 336 336 337 341 342 342 343 343 344 343 344 344 345 345
301 301 302 302 302 303 304 303 303 304 304 305 305 305 304 304 305 304 304 303 302 305 304 304 305 305 307 304 303 303 303 302 301 301 303 302 302 301 302 303 305 305 305 306 307 307 308 308 308 308 308 307 307 307 308 310 310 309 309 310 311 310 310 310 309 310 312 314 317 322 328 328 331 336 339 341 340 339 340 342 343 343 344 344 344
299 301 302 301 302 302 303 302 303 303 304 305 305 304 304 304 304 304 304 302 304 303 304 303 304 304 304 303 302 302 303 302 301 301 301 302 302 300 301 302 303 303 303 305 305 305 306 306 307 306 306 305 305 306 305 306 306 307 307 309 307 308 308 309 310 310 311 314 315 320 324 324 326 329 334 337 339 340 339 340 341 342 342 343 344
300 301 301 302 302 302 302 303 303 303 302 303 305 303 303 304 304 304 304 303 303 304 303 304 303 303 304 302 301 302 303 302 305 304 305 302 303 304 302 303 303 303 302 303 303 304 304 304 304 304 304 305 303 303 303 304 304 305 305 305 306 307 308 308 308 309 309 313 314 319 322 322 323 325 328 330 333 336 339 341 341 341 341 342 342
301 302 302 300 301 302 302 302 302 303 304 302 303 302 303 303 303 302 303 302 303 303 303 303 303 303 302 301 302 301 302 301 301 301 301 301 301 301 301 301 301 302 302 301 301 301 301 301 301 302 301 302 302 302 303 303 303 304 304 304 305 306 307 307 307 307 308 309 311 316 319 318 318 320 321 323 326 329 333 336 339 340 341 341 342
302 300 300 300 301 301 302 302 302 302 303 302 303 302 303 302 302 302 302 302 303 301 302 302 301 302 301 301 301 301 301 300 301 300 300 300 299 299 299 300 299 300 299 299 299 299 299 299 299 300 300 300 300 301 301 302 302 302 303 304 304 305 305 306 306 307 308 308 309 313 315 314 314 316 319 322 324 326 329 331 333 338 339 340 341
301 300 301 300 300 300 301 301 301 302 302 303 302 301 302 302 302 302 302 301 301 301 300 300 301 300 300 300 300 299 299 299 299 299 299 299 298 298 298 299 298 298 298 298 298 298 298 297 298 298 298 299 299 300 300 301 302 302 302 303 303 304 304 304 305 305 306 307 309 312 313 314 314 316 318 320 321 321 322 326 330 332 338 340 340
301 300 300 299 300 300 301 300 300 301 301 301 301 301 301 302 300 299 300 298 300 300 299 299 301 299 299 299 298 299 298 298 298 297 297 298 298 298 298 298 297 297 297 298 297 296 296 297 297 298 297 297 298 298 299 299 300 301 301 302 302 303 303 304 304 305 305 306 307 309 312 314 312 311 314 316 318 319 320 322 324 326 330 334 338
300 300 300 299 300 300 300 299 300 300 300 300 300 300 300 301 300 300 299 300 300 299 299 299 299 298 298 298 298 297 297 297 297 297 297 297 297 297 297 297 297 297 297 296 297 296 296 296 296 296 296 296 296 297 297 297 299 299 300 301 302 302 302 303 303 304 305 305 305 306 310 311 309 310 311 314 316 318 319 320 320 321 322 326 331
300 300 300 299 299 299 299 298 299 300 300 299 300 300 300 300 300 300 299 298 299 299 299 298 298 298 297 298 297 297 297 296 296 296 296 296 296 297 296 296 296 296 296 295 296 295 295 295 295 295 295 295 295 295 296 296 297 298 298 299 300 300 301 301 302 303 304 305 305 304 307 310 311 310 310 311 314 316 318 319 320 322 322 322 324
300 300 300 300 300 299 298 298 299 300 300 299 300 299 300 299 299 299 299 299 298 298 298 298 298 297 297 297 297 296 296 296 295 295 295 295 295 295 295 296 295 295 295 295 295 295 295 295 295 294 294 294 295 295 295 295 296 296 297 298 298 299 300 301 301 302 302 303 304 304 305 307 309 309 309 310 312 313 315 317 319 320 322 323 323
300 300 300 300 299 298 298 298 298 299 299 299 300 299 299 299 299 298 298 298 298 298 297 297 297 297 297 297 296 295 295 295 295 295 294 294 294 294 295 295 294 295 294 294 294 295 295 295 295 296 295 295 294 295 296 295 295 295 296 297 297 297 298 299 300 301 302 302 303 303 303 305 306 309 309 309 311 312 313 314 315 317 319 321 323
301 301 300 300 299 299 298 298 298 299 298 299 299 299 299 298 298 298 298 298 297 297 297 297 296 296 297 296 296 295 295 295 294 294 294 294 294 294 294 294 294 294 294 294 294 295 294 294 294 295 294 294 294 294 296 295 294 295 295 295 296 296 297 298 298 298 300 301 301 302 302 302 303 305 307 309 309 310 311 312 313 315 317 318 321
300 301 300 299 299 300 299 299 298 298 298 298 298 298 298 298 298 298 297 297 297 296 296 296 295 296 296 295 295 294 294 294 294 294 293 293 293 293 293 293 294 293 293 293 293 293 293 293 293 293 293 292 292 293 293 293 294 294 294 295 295 295 296 296 296 297 298 299 300 300 301 301 301 302 303 306 308 309 309 310 311 313 314 316 318
301 300 299 300 299 299 299 297 298 298 298 298 298 298 298 298 297 297 296 297 296 296 295 296 295 295 295 295 294 294 293 293 293 292 292 292 292 292 292 292 293 293 292 293 292 292 292 292 292 291 292 292 292 292 292 292 293 293 293 294 294 294 295 295 295 296 296 297 298 299 300 300 301 301 303 302 303 306 310 309 310 311 312 313 315
300 300 300 300 298 298 299 298 298 298 297 298 298 298 297 297 297 297 297 297 296 296 295 295 295 294 294 295 294 293 293 293 292 292 292 292 291 291 291 292 292 292 291 292 292 291 291 292 292 291 290 290 291 291 292 292 292 292 293 293 293 293 293 293 294 296 297 297 298 298 299 299 300 300 302 301 301 302 305 307 307 309 310 311 312
301 300 299 299 298 298 298 298 297 298 296 297 298 298 297 297 296 295 296 296 295 295 295 295 295 294 294 294 294 293 293 292 292 292 291 291 291 291 291 292 292 291 290 291 291 291 290 291 290 291 291 289 290 290 291 290 290 290 291 292 292 292 293 293 293 294 296 295 297 298 298 300 301 302 300 301 302 302 304 307 308 307 308 308 309
301 300 300 298 297 298 298 298 297 298 297 297 297 297 296 296 296 295 295 295 295 295 295 294 294 294 294 293 294 293 292 292 292 291 291 291 290 290 291 291 291 290 290 290 290 290 291 290 289 290 290 290 289 288 288 289 290 290 290 290 291 291 292 292 293 294 294 294 295 296 297 298 300 300 301 301 301 301 302 304 306 307 307 308 309
300 300 299 298 298 298 297 297 297 297 297 297 297 297 296 295 295 295 294 294 295 294 294 293 294 294 293 293 293 292 291 291 291 291 290 290 290 290 290 291 290 289 289 289 289 290 290 290 289 288 290 289 288 288 288 289 289 289 289 289 290 291 292 292 293 294 294 295 295 297 298 298 298 299 300 300 301 301 301 302 302 303 303 306 309
300 299 299 298 297 298 297 297 297 296 296 296 296 295 294 294 293 294 294 293 294 293 294 293 294 293 293 293 293 292 292 290 291 290 290 289 289 289 289 290 289 289 288 288 288 289 288 288 288 287 287 288 289 289 289 288 288 287 288 289 291 291 292 293 293 293 294 295 295 296 296 298 298 299 300 301 301 301 301 302 302 302 302 304 308
299 298 297 297 297 297 296 296 296 296 295 295 294 294 293 293 293 292 292 293 293 293 293 293 293 293 293 292 292 292 292 291 290 290 289 289 289 289 289 289 289 289 288 287 288 288 288 288 287 288 287 286 287 288 289 288 286 286 288 288 288 290 290 291 291 292 293 294 295 296 297 298 298 299 299 299 300 301 301 301 301 302 302 303 304
298 297 297 297 297 297 296 296 296 295 295 295 295 294 294 294 293 293 293 293 293 292 292 292 292 293 292 292 292 292 291 290 290 290 289 288 288 288 288 288 288 288 288 288 287 288 288 288 288 286 287 286 285 287 288 287 285 284 282 283 286 289 290 291 292 293 294 295 296 297 298 298 298 298 299 299 299 300 300 301 301 301 303 304 304
298 297 297 297 296 296 296 296 295 295 295 295 295 294 295 295 294 294 294 293 294 294 293 293 293 292 292 291 291 291 291 290 290 289 288 288 288 287 287 287 288 287 286 286 287 287 287 287 287 286 285 286 286 288 288 288 283 284 284 283 282 281 287 289 293 293 293 292 293 292 292 292 293 294 295 295 295 296 299 299 299 301 301 301 301
298 296 296 296 296 296 296 296 295 295 295 294 295 295 296 296 295 295 294 294 292 292 292 292 292 291 291 291 291 291 290 289 289 289 288 288 288 287 287 287 287 287 287 286 286 286 287 287 286 286 285 283 284 285 287 286 285 283 280 281 280 282 280 285 284 286 289 288 289 290 292 293 294 295 295 295 295 296 297 298 299 300 300 300 300
297 296 296 295 295 295 296 296 295 294 295 295 295 295 294 293 293 292 292 291 290 290 290 289 290 290 290 290 290 291 290 289 289 288 288 287 287 287 287 286 286 286 286 285 285 286 286 286 286 285 285 283 282 284 285 286 285 286 283 280 280 280 280 281 282 282 287 287 288 289 289 290 290 291 292 292 294 294 295 296 297 298 298 298 298
297 297 296 296 296 296 295 295 295 295 294 294 295 294 292 291 290 289 288 288 287 288 287 288 289 289 289 290 290 290 290 289 288 288 288 287 287 287 286 286 286 286 286 286 285 285 285 285 286 285 284 284 283 282 282 285 285 285 285 284 282 279 278 281 280 278 284 285 286 288 289 290 290 290 291 292 293 292 293 293 295 296 297 298 298
297 298 297 296 296 296 295 295 295 294 295 294 294 293 292 291 290 290 290 289 288 290 290 291 291 291 291 290 290 289 289 288 288 288 287 287 287 286 286 286 285 285 286 285 284 285 285 285 286 285 284 284 283 281 281 282 284 284 285 285 284 284 284 280 278 279 277 282 285 285 286 288 288 289 289 290 291 291 292 293 293 293 294 295 296
297 297 296 296 295 295 295 295 295 294 294 294 293 293 291 291 291 291 291 290 290 290 291 291 291 290 289 288 288 288 288 288 287 287 287 286 286 286 286 285 285 285 285 284 284 284 285 285 285 285 284 284 283 281 281 282 280 281 284 283 283 284 284 284 283 280 278 277 279 284 286 286 287 288 289 289 289 289 290 291 292 293 294 295 296
297 297 296 296 296 295 295 295 294 294 294 294 293 292 292 291 291 291 290 291 292 292 291 290 289 288 287 288 287 287 287 287 287 287 286 286 285 285 285 284 284 284 284 284 284 284 284 284 283 283 283 283 283 283 282 281 281 281 281 281 282 282 282 283 283 283 279 278 278 280 281 285 285 286 286 288 288 289 289 290 291 292 293 293 294
297 298 297 296 296 295 294 294 293 293 293 293 292 292 292 291 291 291 290 290 290 290 289 288 287 288 287 287 287 287 286 286 286 286 286 285 285 285 284 284 284 284 284 284 284 284 284 283 283 283 283 282 283 282 282 282 282 282 281 281 280 280 280 280 280 280 280 281 277 278 280 280 279 282 286 286 287 288 289 290 290 291 292 293 293
297 297 296 295 295 295 294 293 293 293 293 292 292 292 291 291 290 290 290 290 289 289 287 287 287 287 286 286 286 286 286 286 286 285 285 285 285 284 284 284 284 284 283 283 283 283 283 283 283 283 282 282 281 282 282 282 281 281 281 281 280 280 279 278 279 280 280 278 278 278 280 281 280 280 283 286 286 287 288 289 289 290 292 293 294
Wind_Speed
6 6 5 10 13 11 11 11 12 13 14 15 15 15 15 13 14 13 13 13 12 12 12 12 12 12 11 11 11 11 10 10 8 8 8 8 8 8 8 7 7 7 8 8 8 9 8 9 9 8 8 10 10 9 8 8 10 9 8 9 10 10 10 9 9 9 9 9 10 11 12 12 12 11 12 11 10 10 9 8 5 6 6 6 9
5 4 5 8 11 11 11 13 13 13 13 14 15 15 15 15 15 14 14 14 14 13 14 14 14 13 13 13 13 12 12 12 11 11 11 10 10 9 9 8 8 8 8 9 9 8 8 8 8 8 9 10 11 10 7 8 8 9 8 8 8 9 10 10 9 9 9 9 10 10 10 12 13 12 11 10 9 9 8 6 4 5 6 5 6
4 3 4 7 10 10 10 12 12 12 13 13 14 15 14 14 14 14 14 13 14 15 15 15 14 14 14 14 14 14 14 13 13 13 13 13 12 12 11 10 9 9 9 9 9 9 9 9 8 8 8 9 9 10 11 11 9 8 8 8 9 9 9 10 10 10 9 9 9 10 10 10 11 12 11 8 7 8 6 7 5 5 6 10 8
4 3 3 5 12 10 9 10 11 12 12 12 12 13 13 13 14 14 13 12 12 13 15 15 16 15 15 16 15 15 15 15 15 15 14 14 14 14 14 13 11 11 10 9 9 9 9 10 10 10 9 9 8 8 7 8 11 9 8 8 9 10 10 10 10 10 10 8 9 8 7 7 7 9 10 7 6 7 5 6 5 5 9 10 11
4 3 3 5 7 9 9 10 10 11 11 11 12 13 13 14 14 14 13 13 13 13 15 14 15 17 17 17 17 17 17 18 18 17 17 16 16 16 16 16 14 13 12 11 11 10 10 10 10 10 10 10 9 9 9 8 8 10 10 11 11 11 11 10 10 11 10 9 9 9 8 8 5 7 6 5 4 6 4 5 5 7 9 10 11
4 3 3 4 7 8 9 9 10 10 10 11 12 13 13 14 14 14 14 14 15 15 15 15 16 16 16 17 17 17 16 17 17 17 17 18 18 18 17 17 17 17 15 15 13 12 12 12 12 12 12 14 13 12 11 10 9 9 9 10 11 11 10 10 10 10 9 9 12 7 7 7 6 4 2 4 6 5 3 5 7 8 9 10 10
5 3 3 5 6 8 9 9 9 10 11 11 12 13 13 14 14 14 14 15 15 15 15 15 15 16 15 16 16 15 15 16 16 16 16 16 17 17 17 16 17 18 18 18 16 15 15 15 14 13 13 16 16 16 14 13 12 12 11 11 10 10 11 10 9 8 9 9 7 6 6 7 6 4 7 7 6 6 6 8 10 10 10 11 12
4 2 3 6 7 8 9 9 10 10 11 12 12 13 13 14 14 14 14 14 14 14 15 15 15 15 15 15 15 15 15 15 15 15 16 16 16 16 16 16 16 16 17 18 18 18 17 17 17 16 17 17 16 15 15 15 14 14 13 13 12 12 12 12 10 9 9 9 8 8 4 6 7 6 7 8 9 8 7 8 9 11 10 11 9
4 3 3 5 7 9 8 8 10 10 11 12 12 13 13 13 14 14 14 14 14 14 14 14 14 14 15 15 15 15 15 15 15 15 15 15 15 15 15 15 15 16 16 17 17 17 18 19 18 18 18 18 17 17 16 15 14 14 14 14 13 13 13 12 10 10 9 7 8 7 8 7 6 6 7 9 8 9 9 7 7 9 10 9 8
5 4 4 6 7 8 8 9 10 10 11 11 12 13 13 13 13 14 14 14 14 14 14 14 14 14 14 15 15 15 15 15 15 15 14 14 14 14 15 15 15 15 16 16 16 17 17 17 17 17 19 18 18 17 17 16 15 14 15 16 16 16 17 17 17 11 9 8 8 8 7 7 8 8 9 11 10 9 9 7 6 6 6 8 7
4 4 6 7 9 9 9 9 9 10 11 11 12 12 13 13 13 13 14 14 14 14 14 14 14 14 15 15 15 15 15 15 15 14 14 14 14 14 14 15 15 15 15 16 16 16 16 16 16 16 16 15 16 16 16 17 16 17 16 16 15 15 15 15 14 7 8 10 9 8 8 8 6 7 8 8 8 8 8 7 7 8 9 9 9
5 5 6 7 9 9 9 9 9 10 10 11 12 12 13 13 13 13 13 13 14 14 14 14 14 14 14 14 14 14 14 14 15 14 14 14 14 14 14 14 14 14 15 15 15 15 15 15 15 15 15 15 15 16 16 16 17 17 17 16 15 14 14 15 9 7 8 10 10 8 9 9 9 9 12 13 10 8 8 8 9 10 12 11 9
5 6 6 6 7 8 9 9 10 10 10 11 12 12 12 13 13 13 13 13 13 14 14 14 14 14 14 14 14 14 14 14 14 15 14 15 15 15 15 15 15 15 15 15 15 15 15 15 15 16 15 15 15 15 15 15 15 15 15 15 15 15 14 15 8 9 8 9 9 9 9 8 7 9 9 11 11 10 10 11 13 12 13 13 11
6 6 5 6 6 8 9 9 9 9 10 11 11 12 12 13 13 13 13 13 13 13 13 14 14 14 14 14 14 14 14 14 15 15 15 15 15 15 15 15 15 15 15 15 15 15 15 15 15 15 15 16 15 14 14 15 14 14 14 15 14 14 14 10 10 9 9 10 9 9 9 8 9 9 11 13 12 11 12 13 13 13 12 13 12
7 6 5 6 6 5 8 9 9 9 10 11 11 12 12 12 12 13 13 13 13 13 13 13 14 14 14 14 14 14 14 14 15 15 15 14 14 14 14 14 14 14 14 14 14 14 14 14 14 14 14 14 15 15 15 14 13 13 13 13 13 13 12 8 7 8 9 9 9 9 9 8 10 5 7 11 13 13 14 13 14 13 13 12 11
7 6 5 5 6 6 5 6 8 9 10 11 11 11 11 11 12 12 12 12 12 12 13 13 13 13 13 14 14 14 14 14 14 14 14 14 13 14 13 13 13 13 13 14 14 14 13 13 13 13 13 14 14 14 15 14 13 12 12 12 11 12 11 7 6 7 8 8 9 9 9 9 9 8 10 11 13 14 14 14 13 14 13 12 12
5 5 5 5 4 5 5 5 6 10 10 11 10 11 10 11 11 11 11 12 12 12 12 12 12 12 12 12 12 13 13 12 13 13 13 13 12 13 13 13 12 12 12 13 13 13 13 13 13 13 13 13 13 14 14 14 13 13 13 12 12 11 11 9 6 7 7 8 8 8 8 8 11 7 9 10 12 13 15 15 15 15 14 14 13
5 5 5 5 4 4 5 5 6 5 7 8 10 10 10 10 11 10 11 11 11 12 12 12 11 11 10 9 8 9 10 10 10 11 12 12 12 12 12 12 12 12 12 11 12 12 12 12 12 13 13 13 13 13 13 12 12 12 13 14 14 14 12 12 7 8 8 7 7 7 8 9 9 9 11 12 12 14 14 16 17 16 15 15 14
4 4 4 4 5 4 4 4 4 4 4 4 5 7 9 9 9 10 10 10 10 10 10 11 10 9 8 7 6 6 7 9 8 9 9 11 11 10 11 11 11 12 11 10 10 10 11 11 11 12 13 13 13 14 13 11 10 12 12 13 16 14 15 10 7 6 7 6 7 7 7 8 7 12 13 13 14 15 16 16 17 17 16 15 15
4 4 4 3 3 4 3 3 3 3 3 4 5 6 7 8 9 9 9 9 9 8 8 7 8 8 6 5 2 5 6 7 9 7 8 8 11 9 10 10 10 11 12 10 10 10 11 11 11 12 13 12 13 13 11 9 10 11 12 14 14 16 9 5 7 7 7 7 7 7 7 7 9 14 15 16 17 17 17 17 17 17 18 17 16
4 5 5 5 4 4 4 4 4 4 4 4 4 4 3 5 6 6 7 8 7 7 6 7 5 6 6 5 2 6 5 6 7 7 6 6 8 9 10 11 11 11 13 11 11 11 13 12 11 12 13 12 12 13 9 6 10 10 12 13 15 9 5 6 6 7 7 7 7 7 9 9 11 12 14 15 17 19 19 19 19 20 19 18 17
7 6 7 7 6 5 5 5 4 4 4 3 2 2 3 2 3 3 3 4 5 3 5 5 6 5 4 5 6 5 5 6 6 8 5 6 7 8 9 10 11 11 13 11 10 10 12 11 11 12 13 11 12 6 6 6 8 8 9 13 9 5 6 6 7 7 7 7 7 7 11 14 14 14 15 15 18 19 19 19 19 19 20 21 19
9 8 7 9 7 6 7 6 6 5 5 4 2 3 2 3 3 2 3 2 3 4 3 4 5 5 5 5 5 5 5 4 5 3 4 6 1 4 6 6 7 7 12 9 8 9 11 9 10 11 11 9 6 5 6 6 6 8 8 6 5 5 7 7 7 6 6 6 7 9 11 14 15 15 15 16 17 19 19 20 20 20 19 20 21
10 9 8 8 8 7 7 6 7 7 6 4 3 3 3 3 2 2 1 2 1 2 4 4 4 5 4 4 4 4 4 4 2 2 4 4 2 3 3 4 4 4 11 6 8 8 11 9 9 10 6 5 6 6 6 6 6 6 6 6 6 6 7 7 6 6 6 7 7 10 10 13 14 15 16 17 18 19 20 20 20 20 21 21 21
9 8 8 8 9 8 7 7 7 6 5 5 4 4 3 3 3 2 2 1 1 2 2 3 4 4 4 3 3 3 3 4 5 5 5 5 5 5 5 6 5 5 8 5 6 6 6 6 6 7 6 7 7 6 7 7 7 7 7 7 7 7 7 7 7 7 7 7 7 9 10 12 15 17 17 17 18 18 19 20 20 21 20 21 22
9 9 10 9 10 9 8 7 7 6 6 5 4 4 3 3 3 2 2 2 2 1 2 2 3 4 3 3 3 3 3 3 4 4 4 4 5 5 5 5 6 5 6 5 6 6 6 6 6 6 6 6 6 6 7 7 7 7 7 7 7 7 7 7 7 7 7 7 7 11 11 14 17 17 17 18 17 17 18 20 21 21 21 22 21
10 10 10 9 10 10 9 8 7 7 6 5 5 5 4 3 2 2 2 2 2 1 2 2 3 4 3 4 3 3 3 3 4 4 5 5 5 5 5 5 6 5 6 5 6 6 6 5 5 5 6 6 6 6 6 6 6 7 7 7 7 7 7 7 7 7 7 7 8 11 11 12 15 16 17 18 19 19 19 19 21 22 21 20 22
9 11 10 9 10 11 11 10 8 7 6 6 6 5 4 4 4 4 2 2 1 2 2 2 2 3 4 4 3 3 3 3 4 5 5 4 5 5 5 5 5 5 6 5 6 6 6 5 5 6 6 6 6 6 5 6 6 7 7 7 7 8 7 8 8 8 8 8 8 10 10 9 12 16 18 19 20 20 20 20 20 22 23 23 22
12 12 10 10 11 10 11 11 9 9 7 7 6 5 5 5 4 3 3 3 2 2 2 2 2 3 4 4 4 3 3 4 4 4 4 4 4 4 5 5 5 5 6 5 5 6 6 5 5 5 6 6 6 6 6 6 6 6 7 7 7 8 8 8 8 8 8 8 8 9 11 11 15 16 17 19 20 21 21 21 21 22 24 24 23
13 12 11 10 10 11 12 11 10 9 8 7 6 5 5 5 4 4 4 4 3 2 2 2 2 2 3 3 4 4 4 4 4 3 4 4 4 5 5 5 5 5 5 5 5 5 6 5 5 5 5 6 6 6 6 6 6 7 7 7 7 8 8 8 8 8 8 8 8 9 11 11 11 16 18 19 20 20 21 21 21 22 22 24 25
13 14 12 10 10 12 11 11 10 9 8 7 6 6 6 5 5 5 4 3 3 3 2 2 1 2 3 3 3 4 3 3 3 4 4 5 5 5 5 5 5 5 5 5 5 6 6 5 5 5 5 6 6 6 6 6 7 7 7 7 8 8 8 8 8 9 9 9 9 9 10 13 13 15 17 18 19 20 21 21 22 22 22 23 25
14 14 11 10 12 13 12 12 11 9 9 8 7 6 6 6 6 5 4 4 4 3 3 2 2 3 3 2 3 3 2 1 2 3 4 4 4 4 4 4 5 4 5 5 6 6 6 6 6 5 6 6 6 6 6 6 7 7 7 8 8 8 8 9 9 9 9 9 9 9 9 9 12 13 15 18 20 20 21 21 21 22 22 23 23
11 13 12 12 13 13 12 12 11 10 10 9 8 7 6 6 5 5 5 4 4 3 3 3 2 3 3 2 3 2 2 2 2 3 3 3 3 4 4 4 4 4 5 7 7 6 6 6 6 6 6 6 7 7 6 6 7 7 7 8 8 9 8 9 9 10 10 9 10 10 9 9 10 12 14 15 18 19 20 20 21 21 22 22 23
11 11 13 14 11 9 8 9 10 11 10 9 8 7 7 6 5 5 5 5 4 3 3 3 2 3 3 3 3 3 1 1 2 2 2 3 3 4 4 4 4 5 6 6 5 6 6 6 6 6 6 7 7 7 7 7 7 7 7 8 8 8 8 9 10 10 10 10 10 9 9 10 9 9 9 12 14 15 19 20 20 21 21 21 22
12 13 15 15 13 11 9 8 10 11 10 9 8 7 7 6 6 5 5 4 4 3 3 3 3 3 3 4 3 2 1 1 1 2 2 3 3 4 4 4 4 6 6 5 6 6 6 6 6 6 7 7 7 8 8 8 8 9 8 7 8 9 9 10 10 10 10 10 10 10 10 9 9 9 8 8 9 12 14 17 19 19 20 21 22
16 14 14 14 14 13 11 10 11 11 10 8 8 7 7 6 5 6 5 5 4 4 3 3 3 2 3 2 4 2 1 0 0 1 2 2 3 4 4 5 6 6 6 6 6 6 6 6 6 6 7 8 8 9 8 8 8 9 8 8 9 9 10 10 10 10 10 10 10 10 9 9 9 9 9 9 9 10 14 16 19 20 21 22 23
16 15 15 15 14 14 13 11 13 12 11 10 9 8 7 7 6 6 5 5 4 4 3 3 3 3 3 3 4 3 2 2 1 1 2 2 3 4 4 5 5 6 6 6 6 6 6 6 6 6 6 8 9 10 9 9 9 9 9 10 9 10 10 10 10 10 9 10 11 11 10 10 9 10 9 9 9 9 11 13 14 18 18 19 22
16 15 16 16 15 14 13 11 11 11 10 10 9 8 7 6 5 5 5 5 4 3 3 4 4 3 3 3 4 3 2 2 1 1 1 2 3 4 5 5 5 5 6 6 6 7 6 6 7 6 7 7 8 9 10 9 9 9 10 11 12 10 10 11 11 10 10 11 10 11 10 9 9 9 8 8 9 9 9 11 15 17 18 18 21
14 16 15 15 13 12 12 12 12 12 11 10 9 8 7 6 5 5 5 4 4 4 3 4 3 3 3 3 4 3 3 3 2 1 1 2 3 4 5 5 5 5 6 6 7 7 6 5 7 8 7 7 8 9 9 10 10 10 11 13 12 13 11 11 11 10 10 11 11 10 8 9 9 9 9 9 9 9 9 9 9 8 9 13 15
14 15 16 15 14 13 12 11 12 12 10 10 8 7 7 7 6 5 5 5 5 5 4 4 4 3 4 4 4 3 3 2 2 1 2 3 3 4 5 5 5 5 6 7 7 6 7 8 8 8 9 8 8 8 8 9 10 12 14 12 11 12 13 12 12 12 11 10 9 9 9 8 8 8 8 8 8 9 9 9 9 9 9 11 16
15 16 16 16 16 14 14 14 12 12 10 10 9 9 9 7 7 7 7 7 6 6 5 5 4 4 5 4 4 4 3 3 2 2 2 3 4 4 5 5 5 5 6 7 7 8 7 7 7 6 8 9 8 7 8 8 11 11 9 12 13 13 14 14 14 13 11 9 8 8 8 8 8 8 8 7 9 9 9 10 9 9 10 9 10
16 16 17 17 16 16 15 13 12 12 12 11 10 9 8 8 8 8 7 7 7 7 6 5 5 4 5 5 4 4 4 3 2 3 3 3 4 4 5 5 5 5 6 8 9 9 8 7 6 7 6 7 8 7 7 8 7 9 14 14 9 7 9 10 11 10 8 7 7 7 7 8 9 9 8 9 9 10 10 9 10 10 9 9 9
17 18 17 17 17 15 14 13 12 12 11 11 10 9 8 8 7 7 7 6 5 5 4 4 5 5 5 5 5 4 4 3 3 3 3 4 4 5 5 5 5 5 6 7 8 8 6 7 6 6 7 6 8 6 5 4 8 9 10 12 12 16 4 5 4 5 7 8 9 11 12 12 13 12 10 10 10 10 9 10 11 11 11 10 11
15 16 17 18 15 14 14 14 13 12 11 11 10 9 9 8 6 6 5 4 5 5 3 3 4 5 5 5 5 4 4 4 4 4 4 4 5 5 5 5 5 5 6 7 8 7 6 5 5 6 7 8 6 6 5 5 5 8 9 6 12 9 15 5 11 10 7 13 10 10 8 8 10 10 9 11 10 10 10 10 11 12 11 12 12
16 16 16 16 12 16 15 15 13 13 11 12 12 10 9 8 7 6 5 3 2 3 4 5 6 6 5 6 6 5 5 4 4 5 4 5 5 5 5 5 5 6 6 7 7 7 6 6 6 6 6 7 9 7 6 6 6 4 4 8 7 6 7 13 17 18 4 4 7 10 12 13 13 11 10 11 10 11 10 12 12 12 13 14 14
16 15 15 15 15 15 16 15 12 12 12 13 13 11 10 10 9 8 7 7 7 7 8 8 7 7 7 5 5 5 5 5 5 5 5 5 5 5 5 5 6 6 6 7 7 7 7 6 5 6 7 7 8 8 8 5 5 5 6 7 7 8 13 14 10 13 20 8 8 7 7 9 8 10 11 11 12 12 12 13 14 14 13 12 14
15 14 14 15 16 15 16 16 13 12 12 13 14 11 10 9 11 10 9 8 8 7 6 6 6 5 5 5 4 5 5 5 5 5 5 6 5 5 5 5 6 7 7 7 7 7 6 6 5 6 6 7 7 8 8 7 6 6 7 8 10 10 10 10 10 13 16 18 7 5 9 8 11 12 12 12 12 12 12 12 14 15 16 14 14
15 14 14 15 17 17 17 16 12 12 12 12 15 11 11 11 11 10 9 8 8 7 8 6 4 4 4 4 4 4 5 5 5 6 6 6 5 5 5 6 6 7 7 7 7 7 6 6 6 7 7 7 7 8 8 6 6 7 5 7 8 10 11 12 13 10 12 15 24 13 7 7 10 11 11 13 13 13 15 14 14 15 14 14 12
15 15 15 15 14 15 16 16 14 13 13 15 14 13 11 11 10 9 9 7 6 5 5 5 5 4 4 4 4 4 4 5 6 6 6 6 5 5 6 6 7 7 7 7 8 7 8 8 7 7 7 8 7 8 8 8 7 8 7 8 8 9 9 10 10 10 10 11 18 18 22 12 10 13 13 13 13 13 14 15 15 15 16 17 16
14 13 13 14 14 14 16 18 17 13 13 15 14 14 13 11 11 10 10 8 7 6 5 6 5 5 5 5 5 5 5 5 6 7 7 7 6 6 6 7 7 8 7 8 8 8 8 8 8 8 8 9 8 8 9 8 7 8 8 8 8 8 8 8 9 9 12 13 15 18 18 21 22 13 7 10 13 13 14 15 15 15 14 14 15
12 14 13 14 14 15 17 18 17 13 14 15 16 15 13 12 11 11 11 10 10 8 7 6 6 6 5 6 5 5 5 5 5 5 6 6 6 6 6 7 7 7 7 8 8 8 7 7 7 8 9 10 9 9 10 10 9 9 9 8 9 9 9 9 9 9 11 11 12 16 17 17 20 24 12 6 11 14 14 14 14 14 14 13 12
Wind_Direction
50 43 30 35 358 8 29 32 34 36 46 47 45 47 48 50 50 53 52 52 55 56 57 55 53 55 58 59 57 53 52 51 52 52 45 41 39 36 24 13 5 349 349 351 344 342 340 345 345 348 351 349 353 345 335 333 333 335 335 336 335 335 334 336 336 338 337 341 336 332 331 325 317 309 303 301 301 309 314 309 282 280 273 272 255
59 39 52 35 5 30 32 36 38 40 43 49 49 47 46 46 47 48 50 49 51 53 54 56 54 53 54 52 55 56 55 53 56 55 50 47 43 36 25 18 12 5 359 351 348 344 345 342 341 346 348 1 355 341 326 319 326 319 324 327 327 331 331 331 333 329 334 333 333 328 323 314 299 287 282 282 286 293 301 305 285 276 284 281 294
60 65 69 48 37 31 40 42 43 43 45 49 52 50 52 50 48 47 48 47 46 48 48 51 51 52 52 53 53 51 51 52 54 54 55 54 50 40 33 25 19 14 5 351 351 355 352 347 342 342 348 357 3 2 350 341 317 310 309 315 323 323 328 328 328 329 325 325 326 324 306 282 267 266 259 263 276 290 298 304 283 267 279 298 300
77 64 47 98 71 33 47 50 50 49 49 50 53 53 55 56 54 53 52 49 49 49 46 45 45 47 50 51 49 48 47 46 49 48 50 50 46 41 34 29 25 20 15 6 7 4 3 358 353 350 360 7 5 6 6 358 351 323 303 308 313 324 326 328 327 326 322 321 316 319 301 292 279 242 240 238 268 291 304 315 285 259 281 289 289
82 63 60 54 52 43 45 52 54 56 57 59 59 58 56 56 57 58 57 57 57 55 52 50 47 45 47 49 46 44 41 39 38 40 39 43 44 36 30 26 24 18 18 18 14 15 10 7 6 3 7 13 12 5 3 0 355 350 334 318 317 321 322 323 323 324 322 313 310 296 288 283 281 289 216 261 291 305 325 313 293 280 276 277 280
66 61 64 59 58 50 41 57 57 60 65 65 64 61 59 58 58 57 56 58 58 57 58 57 54 51 49 47 47 45 41 39 37 35 32 32 34 35 31 25 20 20 21 16 14 15 16 13 14 14 24 25 16 11 7 359 353 349 344 334 322 317 319 315 321 319 318 316 288 271 271 267 280 291 346 311 301 309 313 307 298 285 267 263 268
73 53 52 56 64 48 43 53 61 64 65 65 65 64 63 61 61 59 59 57 56 56 56 56 56 56 55 56 54 53 49 45 44 42 38 35 32 30 27 21 14 17 15 16 19 22 23 22 17 23 33 30 21 15 11 9 4 357 351 348 340 330 320 319 313 313 310 306 301 303 306 312 316 316 304 297 302 308 311 309 305 298 284 279 275
86 87 62 68 52 50 49 60 65 69 67 67 66 66 65 63 61 62 61 60 59 58 58 56 56 56 57 57 57 56 52 51 47 44 41 38 37 34 30 24 21 15 12 10 14 18 19 23 22 20 28 26 18 12 10 10 6 3 0 352 349 342 337 328 326 316 305 293 288 289 284 307 309 303 308 307 302 305 305 306 307 304 298 291 280
107 88 87 84 80 46 49 62 69 69 70 70 69 67 66 65 64 64 64 63 63 62 61 60 58 58 58 57 56 56 55 53 50 46 43 41 40 38 35 32 28 23 18 15 11 9 12 15 15 15 16 19 12 8 8 5 5 5 4 1 353 350 346 336 329 320 295 286 291 295 309 300 297 307 306 308 307 307 310 313 308 308 314 328 329
117 111 70 79 68 54 59 60 65 69 72 71 69 68 68 66 66 66 65 65 65 64 64 63 61 61 59 58 56 55 55 53 50 47 45 44 41 40 38 34 30 27 23 21 19 15 10 7 10 8 12 12 8 4 2 5 4 8 14 7 4 6 3 357 346 310 288 287 287 292 294 336 313 300 301 300 298 299 306 331 320 314 305 312 300
135 114 100 82 55 55 62 66 66 69 71 71 70 70 68 68 68 67 66 65 64 64 63 62 62 61 59 58 56 55 53 51 49 47 45 43 43 40 39 35 32 28 25 22 19 18 18 17 12 12 11 9 7 5 3 359 358 0 4 5 2 2 358 349 335 305 300 299 291 294 296 298 284 273 272 283 295 298 303 311 310 306 296 287 292
127 109 90 85 67 49 63 63 68 70 71 73 75 72 69 68 67 67 66 65 64 64 62 61 62 60 60 58 57 56 53 50 47 45 43 41 40 39 38 36 33 29 27 25 20 17 16 14 14 13 12 9 6 5 4 1 358 355 355 357 359 358 356 343 320 302 293 291 294 288 290 291 290 300 321 310 301 297 300 300 296 295 295 292 289
110 104 101 102 86 47 62 68 67 69 70 72 73 72 72 70 67 65 63 62 61 62 61 61 59 58 58 57 57 55 53 51 47 45 42 39 36 36 35 34 31 29 27 24 22 20 17 15 13 9 8 8 6 4 2 1 357 356 355 355 356 356 357 337 320 314 301 292 289 290 288 284 283 284 290 299 302 303 300 300 301 300 299 299 295
123 111 105 101 93 64 55 64 70 72 71 71 69 69 69 68 67 66 64 62 61 59 58 58 56 56 55 55 54 53 53 51 49 45 43 39 36 34 33 31 29 27 26 25 22 19 16 15 13 9 6 2 1 1 359 356 355 354 353 352 352 353 356 337 330 311 305 299 290 285 288 290 283 289 296 298 301 298 300 300 298 297 295 298 298
114 105 117 127 125 102 66 62 72 72 72 72 70 71 70 68 68 68 67 66 63 61 60 57 54 54 54 55 54 53 53 53 51 48 44 42 38 34 33 31 29 26 24 23 21 18 16 13 11 7 3 359 355 353 351 350 350 351 350 348 348 346 349 336 325 312 305 301 294 287 282 275 282 279 291 294 296 295 296 297 296 296 296 294 294
115 123 123 121 128 136 127 90 78 78 76 73 73 74 73 73 71 70 68 69 66 65 62 58 57 54 53 52 51 51 51 51 49 47 44 41 39 35 33 32 29 26 23 21 19 16 13 12 9 4 360 355 350 346 344 343 342 345 344 343 341 337 332 327 309 304 295 290 294 301 295 283 281 278 275 282 290 294 295 296 295 295 296 294 293
117 125 130 126 135 131 130 124 105 93 76 69 71 71 73 74 72 70 69 67 68 67 63 61 57 55 54 51 51 50 48 47 47 46 44 39 38 33 31 31 29 26 22 21 18 15 12 9 6 1 357 351 345 340 338 337 336 337 338 335 332 326 316 308 293 287 285 284 281 288 290 290 302 314 304 295 288 291 296 297 297 295 295 294 291
139 152 143 146 157 152 137 143 150 132 115 94 67 62 68 72 72 71 70 68 67 64 62 59 58 56 53 51 56 58 55 48 48 44 45 38 33 31 26 29 27 24 21 19 16 13 9 6 3 359 354 349 342 337 334 333 333 334 332 331 326 318 306 296 272 268 270 273 281 276 280 283 298 322 306 296 293 290 290 292 294 294 290 288 289
155 168 150 161 156 157 144 140 131 122 123 104 99 72 65 70 72 72 70 70 70 67 65 62 55 50 47 45 50 71 69 59 48 52 46 45 32 28 23 26 25 23 17 16 16 12 8 3 359 355 352 346 341 335 331 329 331 328 327 325 318 308 300 285 257 290 305 299 288 287 286 318 334 313 303 300 296 292 293 293 293 296 295 288 284
166 177 166 172 161 158 155 141 133 120 106 100 100 98 78 69 67 67 66 66 63 64 64 60 67 45 36 19 353 39 52 55 41 38 39 41 36 21 15 20 20 17 13 11 11 8 5 1 359 354 349 344 339 328 317 318 327 325 322 319 309 303 289 287 324 317 303 298 303 292 290 312 312 301 299 297 294 293 291 290 289 289 292 294 293
171 186 186 171 169 170 169 145 129 118 110 108 101 95 103 134 97 81 74 58 56 55 47 53 44 58 23 15 18 36 41 33 32 14 18 24 40 10 8 9 12 10 7 4 6 4 360 357 357 353 348 344 334 317 294 314 323 318 319 311 302 292 302 331 324 314 305 298 297 291 314 346 329 307 298 295 293 293 291 288 288 285 284 286 286
179 184 189 173 178 172 167 158 137 132 127 123 126 136 134 106 82 83 57 64 45 52 49 41 42 31 12 29 33 32 21 38 24 13 3 6 20 2 355 358 3 3 360 355 358 359 355 354 354 351 345 344 335 335 342 334 312 313 303 292 286 317 332 323 313 299 299 291 291 303 340 333 328 321 316 304 295 289 289 289 288 286 285 285 282
183 184 183 181 182 170 179 161 153 143 139 134 146 140 154 123 124 114 128 105 83 48 58 51 41 34 27 28 37 28 11 34 26 346 321 292 315 340 336 341 350 357 351 338 350 356 349 354 353 349 342 348 344 344 344 334 329 322 308 307 332 326 323 310 301 297 296 300 300 310 322 318 314 311 311 310 307 308 301 294 288 285 284 284 282
185 185 175 181 179 177 175 160 156 156 161 152 163 164 152 152 142 142 135 129 113 103 76 56 49 41 28 38 37 26 5 27 36 228 291 353 24 205 230 273 352 16 347 339 354 4 346 356 354 349 348 358 352 344 340 337 331 331 328 326 326 325 315 310 305 303 298 300 295 298 312 313 309 305 305 303 302 304 307 306 301 296 289 284 281
184 175 171 179 180 177 168 163 162 163 172 156 172 162 156 153 142 143 112 97 89 86 85 82 64 48 42 44 38 33 21 26 19 9 5 3 359 359 1 6 2 358 354 359 359 352 351 355 354 355 360 355 351 344 339 333 332 328 326 325 321 318 313 309 308 303 301 296 294 303 312 310 302 301 299 297 296 296 299 301 303 303 300 293 287
176 181 178 173 180 174 172 163 165 167 171 168 172 132 183 157 144 141 134 108 108 86 82 79 77 52 55 29 39 46 24 36 18 15 3 2 2 0 358 3 355 355 358 357 358 353 347 354 354 353 351 347 342 338 333 324 323 325 319 318 316 313 313 310 305 302 300 299 297 306 306 301 296 296 294 294 293 294 295 296 294 298 300 298 293
180 185 175 175 176 174 173 165 166 166 172 169 153 166 167 148 137 122 162 134 125 120 94 97 77 67 45 51 34 35 33 26 20 13 9 5 3 359 355 353 355 352 354 350 354 346 344 345 348 345 338 334 330 327 319 321 317 316 312 312 313 311 305 305 303 301 300 295 293 294 291 286 291 295 297 295 294 292 290 291 292 293 296 296 294
179 183 176 173 175 174 171 169 167 165 167 173 172 164 160 146 138 149 166 104 134 107 102 75 98 84 58 45 27 40 31 27 18 12 4 5 359 356 349 350 354 348 348 343 349 343 335 338 336 335 333 331 329 321 318 316 312 304 308 308 305 301 301 300 298 295 292 291 290 287 287 293 298 294 293 293 292 290 288 286 287 288 288 290 292
184 183 177 173 175 173 173 175 167 171 170 172 179 165 156 161 159 156 134 147 136 115 98 117 94 84 72 56 35 37 32 26 20 5 352 1 351 355 347 352 346 346 344 338 342 334 327 327 326 330 327 325 323 323 324 313 310 308 303 300 298 297 294 290 290 290 290 289 290 288 290 288 286 286 287 289 290 290 289 286 282 281 283 285 285
189 180 175 176 170 173 177 178 169 175 169 173 173 166 164 158 165 155 131 160 127 115 145 112 91 86 84 55 52 36 37 25 15 351 349 354 353 354 350 350 341 340 341 332 333 327 318 313 318 317 316 315 314 313 316 312 312 311 305 303 300 297 295 295 291 289 287 285 286 286 278 274 276 283 284 285 285 285 287 286 284 281 279 280 282
184 185 178 174 170 172 177 177 171 171 167 176 175 170 165 164 160 153 153 142 142 152 145 122 106 89 74 66 62 49 37 32 11 355 350 355 353 352 346 339 331 335 333 324 327 317 308 304 312 311 312 310 304 306 306 306 304 304 301 300 302 298 295 294 293 290 289 287 285 286 287 279 271 270 275 279 280 282 283 285 284 283 280 279 279
189 186 179 171 168 174 175 175 172 167 173 177 170 166 169 159 159 155 148 140 152 157 142 128 134 105 97 81 67 57 36 31 25 0 355 346 343 343 328 325 320 321 327 320 315 305 297 296 300 307 301 299 306 306 301 303 299 299 299 298 296 297 295 294 290 289 287 287 284 283 284 283 276 268 265 272 277 278 280 282 282 282 280 278 276
192 184 177 171 170 173 174 174 170 169 182 172 170 170 163 161 165 158 143 152 161 160 148 138 140 130 129 107 81 69 46 31 10 6 341 327 329 321 315 313 310 327 318 309 305 302 303 311 315 312 309 315 307 305 305 300 300 298 297 296 294 290 290 291 288 285 281 279 280 282 281 282 283 278 266 261 265 272 277 279 280 280 281 280 278
185 182 176 175 169 169 169 169 175 170 183 176 172 167 166 167 162 158 146 168 159 153 149 151 154 155 142 122 113 87 46 43 10 350 337 320 315 310 307 311 313 332 313 307 316 316 309 313 319 321 322 315 309 307 307 302 298 296 295 296 291 289 290 287 286 284 284 282 280 277 277 279 280 282 285 274 266 264 273 276 277 278 278 279 278
182 182 181 174 165 166 166 166 173 172 178 177 173 169 165 164 164 159 159 173 151 157 155 153 168 169 152 139 124 103 99 47 5 335 316 311 309 310 313 310 335 322 310 314 315 311 306 314 322 321 314 310 307 304 301 297 296 295 292 292 290 291 285 280 277 277 275 275 274 275 273 270 272 276 280 283 279 269 266 272 279 281 281 282 282
188 180 174 170 170 168 165 162 169 172 175 172 172 162 165 168 167 162 150 167 157 160 159 165 172 172 148 136 134 134 118 113 294 310 297 318 315 310 309 323 326 314 314 313 310 308 313 313 314 315 315 311 309 304 303 298 297 297 296 291 289 285 283 281 279 275 273 273 271 271 271 272 271 274 277 280 282 282 278 276 277 277 278 277 278
186 178 174 171 171 167 166 166 172 171 175 171 172 168 170 170 165 165 152 160 169 167 167 170 177 176 163 165 145 154 171 170 223 260 291 308 311 307 305 314 318 313 309 311 305 303 310 310 307 316 312 307 306 303 303 304 301 297 294 288 284 283 278 276 276 273 275 270 267 267 269 266 266 264 268 270 273 277 271 266 268 274 275 274 275
187 182 175 172 173 168 169 169 172 172 174 171 173 171 170 164 166 159 162 163 174 172 172 178 188 178 168 173 153 172 181 183 212 278 308 313 298 293 293 299 300 304 306 301 299 297 293 295 305 311 312 305 300 304 303 301 300 297 294 290 283 277 275 273 269 270 268 269 266 263 263 269 270 271 271 272 273 271 272 267 264 265 264 263 264
186 183 174 172 170 166 167 171 173 174 174 169 169 169 165 164 164 161 163 176 171 189 190 188 190 183 178 166 160 190 185 197 211 224 276 295 297 294 288 286 293 296 297 296 294 292 289 298 305 303 300 298 295 295 295 298 299 297 292 287 282 273 269 264 265 267 264 262 265 267 271 271 271 269 266 264 265 270 274 278 282 280 271 262 262
184 182 175 172 172 166 168 170 176 173 172 168 167 173 171 174 171 165 172 188 188 186 190 203 185 189 175 172 178 199 193 196 196 217 263 274 279 282 288 288 285 285 287 288 288 293 306 306 300 304 302 298 291 291 298 304 301 295 287 282 278 279 271 266 264 262 264 267 272 274 273 271 266 267 266 269 271 273 274 274 274 273 273 268 263
185 182 179 176 176 171 170 175 175 175 173 172 175 177 176 177 179 184 187 182 189 184 186 191 192 191 174 180 185 196 196 197 214 231 241 254 263 272 275 278 275 276 277 276 283 291 294 291 296 297 299 297 297 299 306 313 305 299 297 292 287 271 260 259 258 255 257 270 274 275 274 272 274 279 284 286 284 280 277 275 272 273 273 277 272
187 184 183 180 179 175 175 172 173 177 181 179 175 184 183 184 179 183 183 178 177 183 187 188 189 185 176 184 194 199 194 204 212 224 242 249 264 270 275 275 281 276 278 281 281 277 277 280 292 300 294 298 296 303 305 315 311 325 323 315 290 279 273 264 252 255 252 263 275 284 287 282 285 288 288 283 282 278 280 282 281 278 274 278 279
184 187 185 179 180 178 178 174 177 177 182 181 178 183 181 181 181 176 181 166 170 177 184 172 173 181 186 194 197 198 195 203 212 223 237 245 254 265 268 275 278 282 280 279 280 281 282 290 294 295 304 295 288 291 305 326 309 315 297 292 321 329 329 220 229 6 348 305 300 290 287 287 285 283 284 287 286 283 280 281 280 279 281 279 280
186 188 187 184 181 183 179 177 177 178 179 181 180 177 174 161 155 145 150 157 166 160 161 164 179 189 200 195 197 196 198 207 208 217 227 233 242 256 269 273 276 278 278 280 281 281 281 283 290 292 293 295 300 303 313 308 302 322 327 342 305 305 311 319 332 285 254 272 267 271 281 289 293 285 281 278 280 286 287 286 283 283 281 282 284
189 188 186 185 184 184 179 179 176 178 179 176 175 168 154 147 140 125 127 130 101 160 181 203 202 202 205 201 202 192 198 204 214 223 231 240 245 250 260 271 277 278 277 274 273 275 284 285 284 284 283 293 298 298 299 294 279 260 281 316 322 303 290 311 339 305 138 318 300 288 283 278 276 280 283 279 284 283 285 284 283 280 280 282 280
192 190 187 185 182 180 178 179 176 178 178 174 171 165 164 166 164 168 175 185 195 193 201 198 189 192 198 192 189 188 192 202 213 221 226 235 240 244 251 261 266 270 267 269 277 282 274 275 276 280 283 279 284 295 292 288 270 249 237 232 231 274 308 312 326 305 315 267 250 275 275 287 286 290 283 281 280 282 281 282 283 281 279 279 278
192 184 183 185 184 180 179 180 178 178 176 171 171 167 170 177 180 184 187 188 194 199 197 194 186 176 172 173 175 188 199 207 212 216 225 227 236 243 249 255 262 265 268 269 269 270 273 271 273 266 272 281 278 279 283 292 292 261 244 238 244 254 265 290 300 316 312 315 282 229 278 269 278 275 274 274 278 282 282 278 273 272 273 270 270
183 181 181 183 184 181 177 180 177 177 173 169 173 175 174 179 181 187 192 197 197 190 178 166 155 154 160 175 188 200 203 207 213 218 223 226 232 240 244 250 254 258 260 262 265 267 271 269 260 263 264 259 263 268 281 283 284 290 276 271 266 260 256 254 259 263 284 300 306 301 225 258 278 269 271 274 273 273 278 273 273 273 271 270 270
183 182 181 180 179 179 178 179 181 175 172 170 172 177 178 179 180 183 189 192 184 174 152 155 159 167 179 188 202 209 208 210 216 219 218 224 229 236 243 247 251 255 255 259 260 262 264 267 265 263 261 266 265 269 273 274 276 278 289 276 272 266 266 261 258 254 258 281 282 289 299 297 266 260 266 263 265 265 265 270 270 269 271 270 266
182 179 174 175 177 177 181 181 184 176 171 172 173 177 179 178 181 185 183 181 177 175 172 167 176 179 189 198 203 210 211 213 211 212 216 219 224 229 235 243 250 252 254 256 263 264 263 260 257 258 262 264 264 264 262 267 266 268 264 274 271 273 267 263 252 251 256 246 261 284 289 299 301 286 249 264 267 262 264 265 267 267 266 267 270
178 176 175 176 176 180 184 185 184 175 170 174 175 177 179 180 182 182 182 180 174 174 173 179 179 181 195 200 203 210 209 212 207 209 210 214 219 225 236 247 252 257 258 259 258 259 261 264 266 264 261 260 261 262 264 264 263 263 262 259 260 258 263 263 265 258 260 262 268 269 275 278 286 294 290 275 272 273 273 269 264 265 269 266 267